| time (UTC) | temp F | wind direction | speed knots | gust knots | rain 1hr in | rain 24hr in | rain mn in | humidity % | barometer mb |
| 20260505153100 | 55 | 211 | 2.6 | 5.2 | 0.00 | 0.00 | 0.00 | 83 | 1015.0 |
| 20260505151603 | 55 | 192 | 1.7 | 7.0 | 0.00 | 0.00 | 0.00 | 84 | 1014.9 |
| 20260505140110 | 55 | 207 | 0.9 | 6.1 | 0.00 | 0.00 | 0.00 | 85 | 1014.1 |
| 20260505124550 | 54 | 173 | 2.6 | 5.2 | 0.00 | 0.00 | 0.00 | 86 | 1013.4 |
| 20260505123051 | 54 | 181 | 2.6 | 7.0 | 0.00 | 0.00 | 0.00 | 86 | 1013.3 |
| 20260505121543 | 54 | 238 | 1.7 | 7.8 | 0.00 | 0.00 | 0.00 | 86 | 1013.2 |
| 20260505120053 | 54 | 192 | 1.7 | 7.0 | 0.00 | 0.00 | 0.00 | 86 | 1013.2 |
| 20260505114557 | 54 | 227 | 1.7 | 11.3 | 0.00 | 0.00 | 0.00 | 86 | 1013.1 |
| 20260505113100 | 54 | 261 | 1.7 | 6.1 | 0.00 | 0.00 | 0.00 | 86 | 1013.0 |
| 20260505111546 | 54 | 185 | 2.6 | 5.2 | 0.00 | 0.00 | 0.00 | 86 | 1012.9 |
| 20260505101554 | 54 | 207 | 3.5 | 8.7 | 0.00 | 0.00 | 0.00 | 86 | 1012.6 |
| 20260505100049 | 54 | 209 | 3.5 | 9.6 | 0.00 | 0.00 | 0.00 | 86 | 1012.6 |
| 20260505094548 | 54 | 236 | 2.6 | 7.0 | 0.00 | 0.00 | 0.00 | 86 | 1012.4 |
| 20260505093057 | 54 | 238 | 2.6 | 7.0 | 0.00 | 0.00 | 0.00 | 85 | 1012.2 |
| 20260505091601 | 55 | 178 | 3.5 | 7.8 | 0.00 | 0.00 | 0.00 | 85 | 1012.1 |
| 20260505090049 | 55 | 179 | 1.7 | 7.0 | 0.00 | 0.00 | 0.00 | 84 | 1012.1 |
| 20260505084546 | 55 | 279 | 1.7 | 5.2 | 0.00 | 0.00 | 0.00 | 84 | 1011.9 |
| 20260505083051 | 55 | 164 | 2.6 | 9.6 | 0.00 | 0.00 | 0.00 | 83 | 1011.9 |
| 20260505081555 | 56 | 240 | 2.6 | 7.8 | 0.00 | 0.00 | 0.00 | 83 | 1011.8 |
| 20260505080053 | 56 | 269 | 1.7 | 7.8 | 0.00 | 0.00 | 0.00 | 83 | 1011.7 |
| 20260505074553 | 56 | 230 | 1.7 | 9.6 | 0.00 | 0.00 | 0.00 | 82 | 1011.6 |
| 20260505073053 | 56 | 271 | 1.7 | 7.8 | 0.00 | 0.00 | 0.00 | 81 | 1011.4 |
| 20260505071600 | 57 | 217 | 1.7 | 7.0 | 0.00 | 0.00 | 0.00 | 81 | 1011.3 |
| 20260505070048 | 57 | 193 | 3.5 | 8.7 | 0.00 | 0.00 | 0.00 | 80 | 1011.3 |
| 20260505064550 | 58 | 179 | 3.5 | 9.6 | 0.00 | 0.00 | 0.00 | 78 | 1011.1 |
| 20260505063048 | 59 | 218 | 0.9 | 6.1 | 0.00 | 0.00 | 0.00 | 77 | 1011.0 |
| 20260505061549 | 59 | 254 | 1.7 | 5.2 | 0.00 | 0.00 | 0.00 | 77 | 1010.8 |
| 20260505060056 | 60 | 272 | 1.7 | 7.0 | 0.00 | 0.00 | 0.00 | 75 | 1010.6 |
| 20260505054548 | 61 | 253 | 3.5 | 9.6 | 0.00 | 0.00 | 0.00 | 73 | 1010.6 |
| 20260505053055 | 62 | 192 | 2.6 | 7.0 | 0.00 | 0.00 | 0.00 | 71 | 1010.4 |
| 20260505051558 | 63 | 232 | 2.6 | 8.7 | 0.00 | 0.00 | 0.00 | 69 | 1010.4 |
| 20260505050106 | 64 | 219 | 2.6 | 5.2 | 0.00 | 0.00 | 0.00 | 67 | 1010.2 |
| 20260505041549 | 67 | 188 | 1.7 | 7.8 | 0.00 | 0.00 | 0.00 | 63 | 1009.7 |
| 20260505040046 | 69 | 236 | 1.7 | 6.1 | 0.00 | 0.00 | 0.00 | 61 | 1009.4 |
| 20260505034551 | 70 | 263 | 1.7 | 5.2 | 0.00 | 0.00 | 0.00 | 58 | 1009.1 |
| 20260505033050 | 71 | 266 | 1.7 | 4.3 | 0.00 | 0.00 | 0.00 | 56 | 1008.9 |
| 20260505031554 | 73 | 279 | 1.7 | 7.8 | 0.00 | 0.00 | 0.00 | 54 | 1008.7 |
| 20260505030048 | 74 | 244 | 2.6 | 7.0 | 0.00 | 0.00 | 0.00 | 53 | 1008.5 |
| 20260505024554 | 75 | 257 | 0.9 | 6.1 | 0.00 | 0.00 | 0.00 | 51 | 1008.3 |
| 20260505023052 | 76 | 245 | 1.7 | 5.2 | 0.00 | 0.00 | 0.00 | 48 | 1008.3 |
| 20260505021549 | 77 | 246 | 0.9 | 5.2 | 0.00 | 0.00 | 0.00 | 47 | 1008.5 |
| 20260505020044 | 77 | 250 | 1.7 | 5.2 | 0.00 | 0.00 | 0.00 | 46 | 1008.2 |
| 20260505014549 | 78 | 271 | 1.7 | 6.1 | 0.00 | 0.00 | 0.00 | 41 | 1008.3 |
| 20260505013058 | 79 | 151 | 2.6 | 6.1 | 0.00 | 0.00 | 0.00 | 38 | 1008.3 |
| 20260505011551 | 80 | 296 | 1.7 | 4.3 | 0.00 | 0.00 | 0.00 | 36 | 1008.3 |
| 20260505010051 | 81 | 193 | 1.7 | 7.0 | 0.00 | 0.00 | 0.00 | 34 | 1008.5 |
| 20260505004545 | 81 | 275 | 2.6 | 5.2 | 0.00 | 0.00 | 0.00 | 33 | 1008.5 |
| 20260505003044 | 81 | 259 | 1.7 | 6.1 | 0.00 | 0.00 | 0.00 | 34 | 1008.6 |
| 20260505001542 | 81 | 292 | 1.7 | 7.0 | 0.00 | 0.00 | 0.00 | 34 | 1008.6 |
| 20260505000058 | 81 | 321 | 2.6 | 6.1 | 0.00 | 0.00 | 0.00 | 33 | 1008.6 |
| 20260504234548 | 82 | 219 | 1.7 | 5.2 | 0.00 | 0.00 | 0.00 | 32 | 1008.7 |
| 20260504233047 | 81 | 297 | 1.7 | 7.0 | 0.00 | 0.00 | 0.00 | 32 | 1008.7 |
| 20260504231543 | 81 | 276 | 2.6 | 9.6 | 0.00 | 0.00 | 0.00 | 33 | 1008.7 |
| 20260504230044 | 81 | 254 | 1.7 | 7.8 | 0.00 | 0.00 | 0.00 | 32 | 1008.7 |
| 20260504224545 | 81 | 259 | 1.7 | 7.8 | 0.00 | 0.00 | 0.00 | 33 | 1009.1 |
| 20260504223058 | 81 | 265 | 2.6 | 7.8 | 0.00 | 0.00 | 0.00 | 35 | 1009.3 |
| 20260504221545 | 81 | 186 | 3.5 | 7.0 | 0.00 | 0.00 | 0.00 | 35 | 1009.5 |
| 20260504220047 | 80 | 196 | 2.6 | 7.8 | 0.00 | 0.00 | 0.00 | 35 | 1009.6 |
| 20260504214548 | 80 | 246 | 2.6 | 7.0 | 0.00 | 0.00 | 0.00 | 38 | 1009.7 |
| 20260504213057 | 80 | 231 | 1.7 | 7.0 | 0.00 | 0.00 | 0.00 | 36 | 1009.6 |
| 20260504211551 | 80 | 229 | 1.7 | 6.1 | 0.00 | 0.00 | 0.00 | 35 | 1009.6 |
| 20260504210049 | 80 | 300 | 1.7 | 8.7 | 0.00 | 0.00 | 0.00 | 34 | 1009.7 |
| 20260504204551 | 80 | 296 | 0.9 | 7.0 | 0.00 | 0.00 | 0.00 | 35 | 1009.8 |
| 20260504203043 | 79 | 285 | 3.5 | 7.0 | 0.00 | 0.00 | 0.00 | 35 | 1009.9 |
| 20260504201557 | 79 | 270 | 2.6 | 7.0 | 0.00 | 0.00 | 0.00 | 36 | 1009.8 |
| 20260504200050 | 78 | 250 | 1.7 | 6.1 | 0.00 | 0.00 | 0.00 | 38 | 1009.8 |
| 20260504194550 | 78 | 280 | 1.7 | 5.2 | 0.00 | 0.00 | 0.00 | 38 | 1009.8 |
| 20260504193045 | 78 | 290 | 1.7 | 6.1 | 0.00 | 0.00 | 0.00 | 39 | 1010.0 |
| 20260504191556 | 77 | 249 | 0.9 | 6.1 | 0.00 | 0.00 | 0.00 | 41 | 1010.0 |
| 20260504190058 | 77 | 275 | 2.6 | 5.2 | 0.00 | 0.00 | 0.00 | 41 | 1010.2 |
| 20260504184603 | 75 | 311 | 1.7 | 7.0 | 0.00 | 0.00 | 0.00 | 43 | 1010.1 |
| 20260504183045 | 75 | 249 | 1.7 | 4.3 | 0.00 | 0.00 | 0.00 | 45 | 1010.4 |
| 20260504181547 | 74 | 0 | 1.7 | 6.1 | 0.00 | 0.00 | 0.00 | 47 | 1010.4 |
| 20260504180053 | 73 | 224 | 2.6 | 6.1 | 0.00 | 0.00 | 0.00 | 47 | 1010.4 |
| 20260504174553 | 72 | 275 | 1.7 | 6.1 | 0.00 | 0.00 | 0.00 | 47 | 1010.4 |
| 20260504173049 | 71 | 281 | 1.7 | 6.1 | 0.00 | 0.00 | 0.00 | 46 | 1010.3 |
| 20260504171550 | 70 | 253 | 2.6 | 5.2 | 0.00 | 0.00 | 0.00 | 51 | 1010.2 |